KUIPER-00353

导读

KUIPER-00353(NORAD编号68865)是亚马逊柯伊伯(Project Kuiper)低轨宽带星座中的一颗通信卫星,该项目旨在构建覆盖全球的高速低延迟卫星互联网系统。作为亚马逊大规模星座部署计划的一部分,它运行在近地轨道,采用改进型设计,搭载相控阵天线与光学星间链路等先进设备,为实现全球偏远地区网络覆盖提供支撑,是亚马逊推进太空互联网组网的重要节点卫星,助力完成计划中超3200颗卫星的第一代星座构建。

基本信息
目录编号:
68865
目录名称:
KUIPER-00353
国际标识:
2026-095B
轨道中心:
EARTH
卫星名称:
KUIPER-00353
卫星全名:
KUIPER-00353
卫星状态:
在轨 (已飞行137 天)
发射日期:
2026-04-28 UTC
国别 :
美国 (US)
星等 :
--
该卫星已列入 空间交会检测服务 Space Conjunction Data Service (SCDS) ,当前飞行风险评估等级: 无高风险
轨道信息
数据来源 国际轨道数据 AOE轨道数据
星历时间 2026-09-11T14:46:14+0800
20小时前
查看轨道信息
2026-09-09T23:00:00+0800
2天前
查看轨道信息
半长轴 7007.695km 7007.679km
偏心率 0.0000721 0.0000515
轨道倾角 51.899° 51.899°
近地点辐角 65.774° 51.967°
升交点赤经 214.947° 222.278°
平近点角 294.330° 114.166°
近地点 629.052km 629.181km
远地点 630.064km 629.903km
周期 97.302分钟 97.302分钟
每日圈数 14.799262 14.79931
详细信息
使用方式:
暂无
2D轨道图
3D轨道图
轨道高度分析图
轨道倾角分析图
轨道综合分析图
查看轨道综合分析图
与全量物体交会距离演化趋势
与全量物体交会风险概率演化趋势